This demonstration page uses our WeatherBlox Daily Observations layout. Learn more.

39.92423, -83.80882

Hourly Observations for July 1, 2016

Temp ( °F °C ) Dew Point ( °F °C ) Humidity (%) Winds ( mph kmh ) Pressure ( in mb ) Visibility ( mi km ) Precip ( " mm )
12:56 am 00:56 Mostly Cloudy 67 19.4 57 13.8 70 70 S 5 7 29.97 1015 10 16.0934 0 0
1:56 am 01:56 Partly Cloudy 67 19.4 58 14.4 73 73 SSW 6 9 29.95 1014 10 16.0934 0 0
2:56 am 02:56 Partly Cloudy 66 18.8 58 14.4 76 76 SSW 5 7 29.94 1014 10 16.0934 0 0
3:56 am 03:56 Partly Cloudy 66 18.8 58 14.4 76 76 SW 5 7 29.93 1014 10 16.0934 0 0
4:56 am 04:56 Mostly Cloudy 67 19.4 57 13.8 70 70 SSW 7 11 29.93 1014 10 16.0934 0 0
5:56 am 05:56 Mostly Cloudy 67 19.4 58 14.4 73 73 SSW 7 11 29.93 1014 10 16.0934 0 0
6:56 am 06:56 Mostly Sunny 68 20 58 14.4 70 70 SSW 7 11 29.93 1014 10 16.0934 0 0
7:56 am 07:56 Mostly Cloudy 69 20.5 58 14.4 68 68 SSW 7 11 29.93 1014 10 16.0934 0 0
8:27 am 08:27 Mostly Cloudy 70 21 61 16 73 73 WNW 14 22 29.97 1015 6 9.65604 0.02 0.508
8:30 am 08:30 Mostly Cloudy 68 20 63 17 83 83 WNW 10 17 29.97 1015 1.75 2.816345 0.06 1.524
8:40 am 08:40 Mostly Cloudy with Light Thunderstorms 64 18 63 17 94 94 WSW 6 9 29.94 1014 3 4.82802 0.06 1.524
8:56 am 08:56 Mostly Cloudy with Nearby Thunderstorms 65 18.3 62 16.6 90 90 SW 9 15 29.95 1014 10 16.0934 0.07 1.778
9:01 am 09:01 Mostly Cloudy with Light Rain 64 18 63 17 94 94 SW 8 13 29.94 1014 10 16.0934 0 0.0254
9:56 am 09:56 Sunny 68 20 65 18.3 90 90 WSW 10 17 29.96 1015 10 16.0934 0 0.0254
10:56 am 10:56 Partly Cloudy 72 22.2 66 18.8 81 81 W 9 15 29.97 1015 10 16.0934 0 0
11:07 am 11:07 Mostly Cloudy 73 23 66 19 78 78 W 9 15 29.97 1015 10 16.0934 0 0
11:56 am 11:56 Mostly Cloudy 73 22.7 65 18.3 76 76 W 9 15 29.98 1015 10 16.0934 0 0
12:29 pm 12:29 Mostly Cloudy 75 24 64 18 69 69 WNW 10 17 29.97 1015 10 16.0934 0 0
12:56 pm 12:56 Partly Cloudy 77 25 64 17.7 64 64 WNW 10 17 29.98 1015 10 16.0934 0 0
1:56 pm 13:56 Partly Cloudy 78 25.5 64 17.7 62 62 W 9 15 29.98 1015 10 16.0934 0 0
2:56 pm 14:56 Sunny 81 27.2 59 15 47 47 WNW 9 15 29.99 1016 10 16.0934 0 0
3:56 pm 15:56 Mostly Cloudy 80 26.6 61 16.1 53 53 WNW 13 20 29.99 1016 10 16.0934 0 0
4:56 pm 16:56 Sunny 82 27.7 57 13.8 42 42 WNW 10 17 30 1016 10 16.0934 0 0
5:56 pm 17:56 Mostly Sunny 80 26.6 56 13.3 44 44 NW 13 20 30 1016 10 16.0934 0 0
6:56 pm 18:56 Sunny 79 26.1 56 13.3 45 45 NW 13 20 30.01 1016 10 16.0934 0 0
7:56 pm 19:56 Sunny 76 24.4 55 12.7 48 48 S 5 7 29.99 1016 10 16.0934 0 0
8:56 pm 20:56 Sunny 72 22.2 54 12.2 53 53 WNW 7 11 30.04 1017 10 16.0934 0 0
9:56 pm 21:56 Clear 67 19.4 54 12.2 63 63 NW 7 11 30.05 1018 10 16.0934 0 0
10:56 pm 22:56 Clear 65 18.3 54 12.2 68 68 NW 7 11 30.08 1019 10 16.0934 0 0
11:56 pm 23:56 Clear 64 17.7 54 12.2 70 70 NW 8 13 30.09 1019 10 16.0934 0 0

Powered by AerisWeather